Location: Gleizolles
(44.4833°N, 6.7667°E)
Time: 22:11:22
(UTC+00:00)

A-11 Canister half - Pass Details

Date: 29 June 2024
Orbit: 1524 x 1684 km, 47.3° (Epoch: 18 July)

Event Time Altitude Azimuth Distance (km) Brightness Sun altitude
Rises 09:01:27 0° 205° (SSW) 4,816 11.6 51.9°
Reaches altitude 10° 09:04:56 10° 196° (SSW) 3,808 11.2 52.5°
Maximum altitude 09:13:20 35° 135° (SE) 2,324 11.5 53.9°
Drops below altitude 10° 09:21:31 10° 74° (ENE) 3,721 11.6 55.2°
Sets 09:24:51 0° 66° (ENE) 4,693 11.8 55.7°
